Time,TemperatureF,DewpointF,PressureIn,WindDirection,WindDirectionDegrees,WindSpeedMPH,WindSpeedGustMPH,Humidity,HourlyPrecipIn,Conditions,Clouds,dailyrainin,SoftwareType,DateUTC
2013-02-04 00:05:00,29.1,21.0,29.80,WNW,288,6.0,9.0,73,0.00,,,0.00,weatherlink.com 1.10,2013-02-04 05:05:00,
2013-02-04 00:20:00,29.3,22.0,29.80,WNW,283,4.0,9.0,73,0.00,,,0.00,weatherlink.com 1.10,2013-02-04 05:20:00,
2013-02-04 00:35:00,29.3,22.0,29.80,WSW,252,2.0,11.0,74,0.00,,,0.00,weatherlink.com 1.10,2013-02-04 05:35:00,
2013-02-04 00:50:00,28.7,21.0,29.80,NW,314,5.0,11.0,73,0.00,,,0.00,weatherlink.com 1.10,2013-02-04 05:50:00,
2013-02-04 01:05:00,28.4,21.0,29.80,WNW,287,4.0,13.0,73,0.00,,,0.00,weatherlink.com 1.10,2013-02-04 06:05:00,
2013-02-04 01:20:00,28.3,20.0,29.80,West,266,3.0,15.0,72,0.00,,,0.00,weatherlink.com 1.10,2013-02-04 06:20:00,
2013-02-04 01:35:00,28.3,20.0,29.81,WNW,290,7.0,15.0,70,0.00,,,0.00,weatherlink.com 1.10,2013-02-04 06:35:00,
2013-02-04 01:50:00,28.1,19.0,29.81,WNW,290,11.0,21.0,68,0.00,,,0.00,weatherlink.com 1.10,2013-02-04 06:50:00,
2013-02-04 02:05:00,28.0,18.0,29.81,NW,320,11.0,16.0,65,0.00,,,0.00,weatherlink.com 1.10,2013-02-04 07:05:00,
2013-02-04 02:20:00,27.7,17.0,29.82,WNW,294,5.0,12.0,64,0.00,,,0.00,weatherlink.com 1.10,2013-02-04 07:20:00,
2013-02-04 02:35:00,27.3,15.0,29.82,WNW,295,9.0,18.0,61,0.00,,,0.00,weatherlink.com 1.10,2013-02-04 07:35:00,
2013-02-04 02:50:00,27.1,15.0,29.83,WNW,290,7.0,18.0,60,0.00,,,0.00,weatherlink.com 1.10,2013-02-04 07:50:00,
2013-02-04 03:05:00,26.8,14.0,29.83,SW,235,15.0,19.0,58,0.00,,,0.00,weatherlink.com 1.10,2013-02-04 08:05:00,
2013-02-04 03:20:00,26.7,14.0,29.83,WNW,294,6.0,19.0,59,0.00,,,0.00,weatherlink.com 1.10,2013-02-04 08:20:00,
2013-02-04 03:35:00,26.5,14.0,29.84,WNW,294,10.0,16.0,59,0.00,,,0.00,weatherlink.com 1.10,2013-02-04 08:35:00,
2013-02-04 03:50:00,26.3,13.0,29.84,WNW,293,2.0,14.0,58,0.00,,,0.00,weatherlink.com 1.10,2013-02-04 08:50:00,
2013-02-04 04:05:00,26.1,13.0,29.85,West,279,5.0,12.0,58,0.00,,,0.00,weatherlink.com 1.10,2013-02-04 09:05:00,
2013-02-04 04:20:00,25.9,12.0,29.86,WNW,301,7.0,17.0,56,0.00,,,0.00,weatherlink.com 1.10,2013-02-04 09:20:00,
2013-02-04 04:36:00,25.8,12.0,29.86,West,271,8.0,16.0,55,0.00,,,0.00,weatherlink.com 1.10,2013-02-04 09:36:00,
2013-02-04 04:51:00,25.5,11.0,29.87,WSW,257,10.0,20.0,55,0.00,,,0.00,weatherlink.com 1.10,2013-02-04 09:51:00,
2013-02-04 05:06:00,25.4,12.0,29.88,West,262,8.0,10.0,57,0.00,,,0.00,weatherlink.com 1.10,2013-02-04 10:06:00,
2013-02-04 05:21:00,25.2,12.0,29.88,WNW,285,4.0,15.0,58,0.00,,,0.00,weatherlink.com 1.10,2013-02-04 10:21:00,
2013-02-04 05:36:00,25.0,11.0,29.89,WNW,294,4.0,14.0,56,0.00,,,0.00,weatherlink.com 1.10,2013-02-04 10:36:00,
2013-02-04 05:51:00,24.8,11.0,29.89,West,273,11.0,14.0,56,0.00,,,0.00,weatherlink.com 1.10,2013-02-04 10:51:00,
2013-02-04 06:06:00,24.7,11.0,29.90,WNW,303,9.0,16.0,55,0.00,,,0.00,weatherlink.com 1.10,2013-02-04 11:06:00,
2013-02-04 06:21:00,24.4,10.0,29.91,WNW,299,6.0,15.0,54,0.00,,,0.00,weatherlink.com 1.10,2013-02-04 11:21:00,
2013-02-04 06:36:00,24.4,11.0,29.91,NW,314,5.0,16.0,57,0.00,,,0.00,weatherlink.com 1.10,2013-02-04 11:36:00,
2013-02-04 06:51:00,24.4,11.0,29.92,WNW,283,3.0,13.0,57,0.00,,,0.00,weatherlink.com 1.10,2013-02-04 11:51:00,
2013-02-04 07:06:00,24.3,11.0,29.92,West,277,3.0,12.0,58,0.00,,,0.00,weatherlink.com 1.10,2013-02-04 12:06:00,
2013-02-04 07:21:00,24.2,11.0,29.93,West,277,4.0,13.0,58,0.00,,,0.00,weatherlink.com 1.10,2013-02-04 12:21:00,
2013-02-04 07:36:00,24.3,12.0,29.93,NW,307,5.0,10.0,59,0.00,,,0.00,weatherlink.com 1.10,2013-02-04 12:36:00,
2013-02-04 07:51:00,24.4,12.0,29.94,NW,318,6.0,13.0,59,0.00,,,0.00,weatherlink.com 1.10,2013-02-04 12:51:00,
2013-02-04 08:06:00,24.6,11.0,29.94,WNW,285,3.0,13.0,57,0.00,,,0.00,weatherlink.com 1.10,2013-02-04 13:06:00,
2013-02-04 08:21:00,24.9,11.0,29.95,WNW,291,4.0,12.0,57,0.00,,,0.00,weatherlink.com 1.10,2013-02-04 13:21:00,
2013-02-04 08:36:00,25.0,11.0,29.95,NW,311,6.0,14.0,55,0.00,,,0.00,weatherlink.com 1.10,2013-02-04 13:36:00,
2013-02-04 08:51:00,25.4,11.0,29.95,WSW,239,5.0,11.0,55,0.00,,,0.00,weatherlink.com 1.10,2013-02-04 13:51:00,
2013-02-04 09:06:00,25.4,11.0,29.95,NNW,345,4.0,13.0,54,0.00,,,0.00,weatherlink.com 1.10,2013-02-04 14:06:00,
2013-02-04 09:21:00,25.6,10.0,29.96,NW,311,10.0,17.0,52,0.00,,,0.00,weatherlink.com 1.10,2013-02-04 14:21:00,
2013-02-04 09:36:00,26.3,11.0,29.96,NW,315,9.0,16.0,52,0.00,,,0.00,weatherlink.com 1.10,2013-02-04 14:36:00,
2013-02-04 09:51:00,26.4,10.0,29.96,WNW,301,9.0,18.0,51,0.00,,,0.00,weatherlink.com 1.10,2013-02-04 14:51:00,
2013-02-04 10:06:00,27.1,11.0,29.96,West,262,7.0,15.0,50,0.00,,,0.00,weatherlink.com 1.10,2013-02-04 15:06:00,
2013-02-04 10:21:00,27.2,10.0,29.96,West,271,6.0,14.0,49,0.00,,,0.00,weatherlink.com 1.10,2013-02-04 15:21:00,
2013-02-04 10:36:00,27.4,9.0,29.96,NW,318,12.0,17.0,47,0.00,,,0.00,weatherlink.com 1.10,2013-02-04 15:36:00,
2013-02-04 10:51:00,28.0,10.0,29.95,NW,318,11.0,14.0,47,0.00,,,0.00,weatherlink.com 1.10,2013-02-04 15:51:00,
2013-02-04 11:06:00,28.1,10.0,29.95,NW,308,11.0,17.0,47,0.00,,,0.00,weatherlink.com 1.10,2013-02-04 16:06:00,
2013-02-04 11:21:00,28.3,9.0,29.95,WNW,288,5.0,15.0,45,0.00,,,0.00,weatherlink.com 1.10,2013-02-04 16:21:00,
2013-02-04 11:36:00,29.0,9.0,29.94,NW,325,2.0,15.0,44,0.00,,,0.00,weatherlink.com 1.10,2013-02-04 16:36:00,
2013-02-04 11:52:00,29.0,9.0,29.94,West,277,9.0,18.0,44,0.00,,,0.00,weatherlink.com 1.10,2013-02-04 16:52:00,
2013-02-04 12:06:00,29.4,10.0,29.94,NW,323,4.0,14.0,44,0.00,,,0.00,weatherlink.com 1.10,2013-02-04 17:06:00,
2013-02-04 12:21:00,29.3,10.0,29.93,WNW,284,8.0,14.0,44,0.00,,,0.00,weatherlink.com 1.10,2013-02-04 17:21:00,
2013-02-04 12:36:00,29.0,9.0,29.93,NNW,338,5.0,13.0,44,0.00,,,0.00,weatherlink.com 1.10,2013-02-04 17:36:00,
2013-02-04 12:51:00,29.4,10.0,29.93,WSW,238,8.0,19.0,44,0.00,,,0.00,weatherlink.com 1.10,2013-02-04 17:51:00,
2013-02-04 13:06:00,29.7,10.0,29.93,NW,304,11.0,19.0,43,0.00,,,0.00,weatherlink.com 1.10,2013-02-04 18:06:00,
2013-02-04 13:21:00,29.2,9.0,29.92,WNW,288,6.0,18.0,43,0.00,,,0.00,weatherlink.com 1.10,2013-02-04 18:21:00,
2013-02-04 13:36:00,29.5,9.0,29.92,WNW,284,8.0,15.0,43,0.00,,,0.00,weatherlink.com 1.10,2013-02-04 18:36:00,
2013-02-04 13:51:00,29.8,10.0,29.92,WSW,255,9.0,13.0,44,0.00,,,0.00,weatherlink.com 1.10,2013-02-04 18:51:00,
2013-02-04 14:06:00,29.5,9.0,29.91,NW,310,8.0,23.0,43,0.00,,,0.00,weatherlink.com 1.10,2013-02-04 19:06:00,
2013-02-04 14:21:00,29.8,9.0,29.91,NW,309,7.0,14.0,42,0.00,,,0.00,weatherlink.com 1.10,2013-02-04 19:21:00,
2013-02-04 14:36:00,30.3,10.0,29.90,West,274,5.0,14.0,43,0.00,,,0.00,weatherlink.com 1.10,2013-02-04 19:36:00,
2013-02-04 14:51:00,29.9,10.0,29.91,West,259,9.0,16.0,43,0.00,,,0.00,weatherlink.com 1.10,2013-02-04 19:51:00,
2013-02-04 15:06:00,30.5,10.0,29.90,WNW,283,4.0,14.0,42,0.00,,,0.00,weatherlink.com 1.10,2013-02-04 20:06:00,
2013-02-04 15:22:00,30.6,9.0,29.91,WNW,298,6.0,15.0,40,0.00,,,0.00,weatherlink.com 1.10,2013-02-04 20:22:00,
2013-02-04 15:37:00,30.4,10.0,29.91,NW,318,9.0,13.0,43,0.00,,,0.00,weatherlink.com 1.10,2013-02-04 20:37:00,
2013-02-04 15:52:00,29.8,10.0,29.91,West,276,5.0,16.0,43,0.00,,,0.00,weatherlink.com 1.10,2013-02-04 20:52:00,
2013-02-04 16:07:00,29.6,9.0,29.92,WNW,294,6.0,12.0,43,0.00,,,0.00,weatherlink.com 1.10,2013-02-04 21:07:00,
2013-02-04 16:22:00,29.5,10.0,29.92,NNW,333,3.0,9.0,44,0.00,,,0.00,weatherlink.com 1.10,2013-02-04 21:22:00,
2013-02-04 16:37:00,29.6,9.0,29.92,West,279,6.0,14.0,43,0.00,,,0.00,weatherlink.com 1.10,2013-02-04 21:37:00,
2013-02-04 16:52:00,29.5,9.0,29.93,WNW,292,6.0,9.0,43,0.00,,,0.00,weatherlink.com 1.10,2013-02-04 21:52:00,
2013-02-04 17:07:00,29.2,9.0,29.93,NW,312,8.0,14.0,43,0.00,,,0.00,weatherlink.com 1.10,2013-02-04 22:07:00,
2013-02-04 17:22:00,29.2,10.0,29.93,SW,217,5.0,16.0,44,0.00,,,0.00,weatherlink.com 1.10,2013-02-04 22:22:00,
2013-02-04 17:37:00,29.2,10.0,29.94,NNW,330,13.0,13.0,44,0.00,,,0.00,weatherlink.com 1.10,2013-02-04 22:37:00,
2013-02-04 17:52:00,29.0,9.0,29.94,West,276,4.0,13.0,44,0.00,,,0.00,weatherlink.com 1.10,2013-02-04 22:52:00,
2013-02-04 18:07:00,29.0,10.0,29.95,NW,314,4.0,13.0,45,0.00,,,0.00,weatherlink.com 1.10,2013-02-04 23:07:00,
2013-02-04 18:22:00,29.1,11.0,29.95,West,281,1.0,13.0,46,0.00,,,0.00,weatherlink.com 1.10,2013-02-04 23:22:00,
2013-02-04 18:37:00,29.0,10.0,29.95,West,271,4.0,11.0,46,0.00,,,0.00,weatherlink.com 1.10,2013-02-04 23:37:00,
2013-02-04 18:52:00,29.0,10.0,29.96,NNW,342,5.0,13.0,46,0.00,,,0.00,weatherlink.com 1.10,2013-02-04 23:52:00,
2013-02-04 19:07:00,29.0,11.0,29.95,West,263,0.0,13.0,47,0.00,,,0.00,weatherlink.com 1.10,2013-02-05 00:07:00,
2013-02-04 19:22:00,29.0,11.0,29.96,WNW,284,1.0,10.0,47,0.00,,,0.00,weatherlink.com 1.10,2013-02-05 00:22:00,
2013-02-04 19:37:00,28.9,11.0,29.96,WNW,290,6.0,11.0,48,0.00,,,0.00,weatherlink.com 1.10,2013-02-05 00:37:00,
2013-02-04 19:52:00,28.9,11.0,29.96,WNW,285,7.0,11.0,48,0.00,,,0.00,weatherlink.com 1.10,2013-02-05 00:52:00,
2013-02-04 20:07:00,28.9,12.0,29.97,West,278,3.0,7.0,49,0.00,,,0.00,weatherlink.com 1.10,2013-02-05 01:07:00,
2013-02-04 20:22:00,28.9,12.0,29.96,WNW,285,3.0,5.0,50,0.00,,,0.00,weatherlink.com 1.10,2013-02-05 01:22:00,
2013-02-04 20:37:00,28.8,12.0,29.96,West,280,0.0,5.0,50,0.00,,,0.00,weatherlink.com 1.10,2013-02-05 01:37:00,
2013-02-04 20:52:00,28.8,12.0,29.96,West,271,3.0,9.0,50,0.00,,,0.00,weatherlink.com 1.10,2013-02-05 01:52:00,
2013-02-04 21:07:00,28.8,13.0,29.96,West,266,0.0,5.0,52,0.00,,,0.00,weatherlink.com 1.10,2013-02-05 02:07:00,
2013-02-04 21:22:00,29.0,13.0,29.96,WNW,302,1.0,7.0,52,0.00,,,0.00,weatherlink.com 1.10,2013-02-05 02:22:00,
2013-02-04 21:37:00,29.0,13.0,29.96,WNW,297,1.0,6.0,51,0.00,,,0.00,weatherlink.com 1.10,2013-02-05 02:37:00,
2013-02-04 21:52:00,29.3,14.0,29.96,WNW,295,6.0,7.0,52,0.00,,,0.00,weatherlink.com 1.10,2013-02-05 02:52:00,
2013-02-04 22:07:00,29.5,13.0,29.96,WNW,288,4.0,7.0,51,0.00,,,0.00,weatherlink.com 1.10,2013-02-05 03:07:00,
2013-02-04 22:22:00,29.6,14.0,29.96,WSW,238,0.0,5.0,52,0.00,,,0.00,weatherlink.com 1.10,2013-02-05 03:22:00,
2013-02-04 22:37:00,29.6,14.0,29.96,WNW,282,2.0,8.0,52,0.00,,,0.00,weatherlink.com 1.10,2013-02-05 03:37:00,
2013-02-04 22:52:00,29.7,14.0,29.96,WNW,290,1.0,5.0,52,0.00,,,0.00,weatherlink.com 1.10,2013-02-05 03:52:00,
2013-02-04 23:07:00,29.7,14.0,29.96,WNW,285,0.0,4.0,53,0.00,,,0.00,weatherlink.com 1.10,2013-02-05 04:07:00,
2013-02-04 23:22:00,29.7,14.0,29.96,West,270,3.0,3.0,53,0.00,,,0.00,weatherlink.com 1.10,2013-02-05 04:22:00,
2013-02-04 23:37:00,29.7,16.0,29.96,WNW,294,1.0,6.0,56,0.00,,,0.00,weatherlink.com 1.10,2013-02-05 04:37:00,
2013-02-04 23:52:00,29.5,17.0,29.95,West,264,0.0,4.0,60,0.00,,,0.00,weatherlink.com 1.10,2013-02-05 04:52:00,